Portada
METAR-TAF:

METAR-TAF

Aeropuertos :

Aeropuerto de Aupaluk

Aupaluk, Quebec, Canadá

latitud: 59-17-48N, longitud: 069-35-59W, altitud: 35 m

Observación

El informe se hizo hace 32 minutos, a las 13:00 UTC
Viento 9 kt del sur
Temperatura -12°C
Humedad 85%
Presión 1003 hPa
Visibilidad: 0.2 km
niebla engelante

METAR: CYLA 141300Z 18009KT 1/8SM FZFG VV002 M12/M14 A2962 RMK FG8 SNW COVER/MUCH LOOSE FROIN SLP037

Hora: 08:32 (13:32 UTC)


TAF: falta

Observaciones y pronósticos meteorológicos de más de 4000 aeropuertos (mensajes METAR y TAF).

Los puntos amarillos y rojos representan las estaciones disponibles.

Ponga el ratón en el punto deseado para ver el nombre de la estación.

Haga clic para ver las observaciones y los pronósticos meteorológicos.

Para cambiar el mapa : haga clic en los botones verdes con una cruz de color negro para hacer un zoom, en el botón verde con un guión para alejar o en las flechas verdes para mapas adyacentes.


METAR-TAF: